FW7612 Weather Reports


time (UTC)temp
F
wind
direction
speed
knots
gust
knots
rain 1hr
in
rain 24hr
in
rain mn
in
humidity
%
barometer
mb
20260506124458 61 215 10.4 24.3 0.00 0.00 0.00 78 1012.8
20260506123959 62 218 11.3 25.2 0.00 0.00 0.00 78 1012.8
20260506123458 61 217 13.9 24.3 0.00 0.00 0.00 78 1012.7
20260506122959 61 209 12.2 29.5 0.00 0.00 0.00 80 1012.8
20260506122458 60 204 9.6 23.5 0.00 0.00 0.00 80 1013.0
20260506121958 60 206 13.9 25.2 0.00 0.00 0.00 80 1012.9
20260506121458 60 209 12.2 24.3 0.00 0.00 0.00 82 1013.1
20260506120959 59 216 10.4 20.9 0.00 0.00 0.00 83 1013.2
20260506120458 58 213 11.3 27.8 0.00 0.00 0.00 83 1013.2
20260506115958 59 212 12.2 23.5 0.00 0.00 0.00 82 1013.1
20260506115459 59 217 9.6 21.7 0.00 0.00 0.00 82 1013.2
20260506114958 59 217 12.2 21.7 0.00 0.00 0.00 81 1013.1
20260506114500 60 210 8.7 25.2 0.00 0.00 0.00 81 1013.1
20260506113959 60 210 11.3 26.1 0.00 0.00 0.00 82 1013.2
20260506113459 60 214 11.3 24.3 0.00 0.00 0.00 81 1013.3
20260506112959 60 216 14.8 25.2 0.00 0.00 0.00 81 1013.1
20260506112459 59 208 10.4 25.2 0.00 0.00 0.00 82 1013.0
20260506111959 60 212 11.3 25.2 0.00 0.00 0.00 82 1013.1
20260506111459 60 218 13.0 23.5 0.00 0.00 0.00 82 1013.2
20260506110959 59 216 9.6 22.6 0.00 0.00 0.00 83 1013.2
20260506110458 59 209 11.3 22.6 0.00 0.00 0.00 84 1013.1
20260506105959 58 206 9.6 22.6 0.00 0.00 0.00 85 1013.1
20260506105458 58 217 10.4 21.7 0.00 0.00 0.00 85 1013.1
20260506104959 58 210 9.6 26.1 0.00 0.00 0.00 85 1013.1
20260506104458 58 213 10.4 26.9 0.00 0.00 0.00 85 1013.0
20260506103959 58 215 8.7 26.1 0.00 0.00 0.00 85 1012.9
20260506103458 58 211 9.6 22.6 0.00 0.00 0.00 85 1012.9
20260506102958 58 211 12.2 26.9 0.00 0.00 0.00 85 1012.9
20260506102458 58 215 11.3 31.3 0.00 0.00 0.00 86 1012.8
20260506101959 58 210 8.7 23.5 0.00 0.00 0.00 86 1012.9
20260506101458 57 213 11.3 24.3 0.00 0.00 0.00 87 1012.9
20260506101018 57 209 9.6 22.6 0.00 0.00 0.00 87 1013.1
20260506100458 57 207 7.0 23.5 0.00 0.00 0.00 88 1012.9
20260506095958 57 207 11.3 23.5 0.00 0.00 0.00 88 1012.8
20260506095458 57 210 11.3 20.9 0.00 0.00 0.00 88 1012.9
20260506094958 57 212 10.4 22.6 0.00 0.00 0.00 88 1012.9
20260506094459 56 211 9.6 22.6 0.00 0.00 0.00 88 1013.1
20260506093958 56 218 9.6 20.9 0.00 0.00 0.00 88 1013.0
20260506093458 56 223 11.3 22.6 0.00 0.00 0.00 88 1013.0
20260506092958 56 217 10.4 24.3 0.00 0.00 0.00 88 1013.0
20260506092458 56 215 9.6 22.6 0.00 0.00 0.00 88 1013.1
20260506091958 56 218 10.4 25.2 0.00 0.00 0.00 88 1013.0
20260506091458 56 223 11.3 20.0 0.00 0.00 0.00 88 1013.0
20260506090958 56 219 11.3 22.6 0.00 0.00 0.00 88 1012.9
20260506090458 57 223 10.4 20.9 0.00 0.00 0.00 88 1013.2
20260506085958 57 210 11.3 26.9 0.00 0.00 0.00 88 1013.1
20260506085457 57 214 13.9 26.1 0.00 0.00 0.00 88 1012.8
20260506084957 57 220 9.6 24.3 0.00 0.00 0.00 88 1013.1
20260506084458 57 217 9.6 26.1 0.00 0.00 0.00 88 1013.2
20260506083957 57 217 10.4 20.9 0.00 0.00 0.00 88 1012.9
20260506083457 57 219 12.2 24.3 0.00 0.00 0.00 88 1013.1
20260506082958 57 222 11.3 24.3 0.00 0.00 0.00 88 1013.0
20260506082458 57 222 8.7 25.2 0.00 0.00 0.00 87 1013.0
20260506081958 57 213 12.2 24.3 0.00 0.00 0.00 88 1013.0
20260506081458 57 219 8.7 26.9 0.00 0.00 0.00 87 1013.1
20260506080958 57 219 14.8 27.8 0.00 0.00 0.00 88 1013.0
20260506080458 57 212 9.6 23.5 0.00 0.00 0.00 87 1013.0
20260506073458 57 215 13.0 31.3 0.00 0.00 0.00 88 1012.9
20260506072957 57 218 15.6 27.8 0.00 0.00 0.00 88 1013.0
20260506072457 57 216 13.0 26.9 0.00 0.00 0.00 88 1013.0
20260506071957 57 214 9.6 21.7 0.00 0.00 0.00 88 1013.0
20260506071457 57 217 10.4 21.7 0.00 0.00 0.00 88 1012.9
20260506070957 57 222 11.3 24.3 0.00 0.00 0.00 88 1013.0
20260506070457 57 216 10.4 28.7 0.00 0.00 0.00 88 1013.0
20260506062457 57 212 12.2 26.1 0.00 0.00 0.00 87 1012.9
20260506061957 57 215 14.8 27.8 0.00 0.00 0.00 88 1012.8
20260506061457 57 220 12.2 25.2 0.00 0.00 0.00 88 1012.8
20260506060957 57 212 10.4 23.5 0.00 0.00 0.00 87 1012.7
20260506060457 57 218 14.8 24.3 0.00 0.00 0.00 87 1012.8
20260506050957 57 213 16.5 26.1 0.00 0.00 0.00 87 1013.1
20260506050458 57 215 13.0 26.1 0.00 0.00 0.00 86 1013.2
20260506044957 57 214 12.2 26.1 0.00 0.00 0.00 86 1013.3
20260506044457 57 212 14.8 26.1 0.00 0.00 0.00 86 1013.1
20260506043957 57 218 13.9 27.8 0.00 0.00 0.00 85 1013.2
20260506043457 57 216 15.6 31.3 0.00 0.00 0.00 85 1013.0
20260506042957 57 216 12.2 29.5 0.00 0.00 0.00 85 1013.1
20260506042457 57 219 13.9 28.7 0.00 0.00 0.00 84 1013.1
20260506042000 57 217 12.2 27.8 0.00 0.00 0.00 84 1013.2
20260506041457 57 215 9.6 24.3 0.00 0.00 0.00 83 1013.2
20260506040957 58 221 14.8 28.7 0.00 0.00 0.00 83 1013.1
20260506040458 58 215 14.8 33.0 0.00 0.00 0.00 83 1013.0
20260506035958 58 219 13.9 33.9 0.00 0.00 0.00 84 1013.0
20260506035458 57 211 14.8 27.8 0.00 0.00 0.00 84 1012.9
20260506034958 57 219 13.0 28.7 0.00 0.00 0.00 83 1013.3
20260506034458 57 216 13.9 26.9 0.00 0.00 0.00 83 1012.9
20260506033958 58 217 13.0 28.7 0.00 0.00 0.00 83 1012.9
20260506033458 58 219 13.9 26.1 0.00 0.00 0.00 82 1012.7
20260506032958 58 215 11.3 27.8 0.00 0.00 0.00 82 1012.8
20260506032458 58 213 13.0 31.3 0.00 0.00 0.00 82 1012.9
20260506031959 58 209 10.4 30.4 0.00 0.00 0.00 82 1012.9
20260506031458 58 218 11.3 26.9 0.00 0.00 0.00 81 1012.8
20260506030958 58 217 17.4 34.8 0.00 0.00 0.00 82 1012.7
20260506030458 58 216 10.4 26.9 0.00 0.00 0.00 81 1012.7
20260506025958 58 220 12.2 32.2 0.00 0.00 0.00 81 1012.6
20260506025458 58 218 13.0 31.3 0.00 0.00 0.00 81 1012.5
20260506024958 58 217 14.8 28.7 0.00 0.00 0.00 80 1012.6
20260506024458 58 218 13.9 35.6 0.00 0.00 0.00 80 1012.5
20260506023958 59 213 13.9 34.8 0.00 0.00 0.00 80 1012.5
20260506023458 59 220 16.5 30.4 0.00 0.00 0.00 80 1012.6
20260506022958 59 217 15.6 33.0 0.00 0.00 0.00 79 1012.5
20260506022457 58 217 13.0 31.3 0.00 0.00 0.00 79 1012.7
20260506021958 59 211 12.2 26.1 0.00 0.00 0.00 79 1012.8
20260506021458 59 215 13.9 24.3 0.00 0.00 0.00 78 1012.9
20260506020958 59 212 11.3 33.9 0.00 0.00 0.00 77 1013.0
20260506020458 59 215 13.9 26.1 0.00 0.00 0.00 77 1012.8
20260506015958 59 215 13.9 25.2 0.00 0.00 0.00 77 1012.8
20260506015458 59 207 11.3 26.1 0.00 0.00 0.00 77 1012.8
20260506014958 59 218 12.2 24.3 0.00 0.00 0.00 76 1012.9
20260506014458 59 225 14.8 27.8 0.00 0.00 0.00 76 1013.0
20260506013958 58 217 10.4 29.5 0.00 0.00 0.00 76 1013.0
20260506013458 58 214 10.4 24.3 0.00 0.00 0.00 76 1012.9
20260506012958 58 209 7.8 20.9 0.00 0.00 0.00 76 1012.8
20260506012457 58 212 8.7 29.5 0.00 0.00 0.00 76 1012.8
20260506011958 58 213 12.2 26.9 0.00 0.00 0.00 76 1012.8
20260506011458 58 214 11.3 29.5 0.00 0.00 0.00 76 1012.7
20260506010958 58 214 10.4 21.7 0.00 0.00 0.00 76 1012.8
20260506010456 58 206 9.6 25.2 0.00 0.00 0.00 75 1012.7
20260506005957 58 216 13.0 25.2 0.00 0.00 0.00 75 1012.6
20260506005458 58 210 11.3 20.9 0.00 0.00 0.00 74 1012.4
20260506004958 58 220 9.6 20.9 0.00 0.00 0.00 73 1012.5
20260506004458 58 208 11.3 24.3 0.00 0.00 0.00 72 1012.2
20260506003958 58 210 13.9 24.3 0.00 0.00 0.00 72 1012.1
20260506003458 58 214 9.6 24.3 0.00 0.00 0.00 71 1011.9
20260506002958 57 209 13.9 24.3 0.00 0.00 0.00 71 1011.5
20260506002458 58 203 9.6 24.3 0.00 0.00 0.00 71 1011.7
20260506001958 57 194 10.4 25.2 0.00 0.00 0.00 71 1011.3
20260506001458 58 208 11.3 27.8 0.00 0.00 0.00 71 1011.4
20260506000958 58 204 10.4 24.3 0.00 0.00 0.00 71 1011.4
20260506000458 58 210 12.2 24.3 0.00 0.00 0.00 70 1011.5
20260505235958 58 209 11.3 22.6 0.00 0.00 0.00 70 1011.6
20260505235458 58 220 11.3 24.3 0.00 0.00 0.00 70 1011.5
20260505234958 58 211 11.3 33.0 0.00 0.00 0.00 69 1011.6
20260505234458 58 207 12.2 29.5 0.00 0.00 0.00 69 1011.4
20260505233959 58 216 15.6 29.5 0.00 0.00 0.00 68 1011.4
20260505233458 59 217 13.0 27.8 0.00 0.00 0.00 69 1011.4
20260505232958 59 215 13.0 26.1 0.00 0.00 0.00 69 1011.3
20260505232457 59 215 10.4 23.5 0.00 0.00 0.00 69 1011.2
20260505231958 59 221 13.0 26.9 0.00 0.00 0.00 70 1011.3
20260505231457 59 208 13.9 30.4 0.00 0.00 0.00 70 1011.1
20260505230958 59 214 11.3 26.9 0.00 0.00 0.00 72 1011.1
20260505230458 59 214 14.8 27.8 0.00 0.00 0.00 72 1011.1
20260505225958 59 214 12.2 23.5 0.00 0.00 0.00 73 1011.1
20260505225458 59 212 11.3 27.8 0.00 0.00 0.00 73 1011.1
20260505224958 59 208 11.3 27.8 0.00 0.00 0.00 72 1011.0
20260505224458 60 215 13.0 26.9 0.00 0.00 0.00 72 1010.8
20260505223958 60 217 14.8 26.9 0.00 0.00 0.00 72 1010.9
20260505223458 60 207 13.9 23.5 0.00 0.00 0.00 71 1010.8
20260505222958 60 212 13.0 26.1 0.00 0.00 0.00 71 1010.9
20260505222457 61 208 11.3 25.2 0.00 0.00 0.00 71 1011.1
20260505221958 61 215 13.0 26.1 0.00 0.00 0.00 71 1010.8
20260505221458 61 214 11.3 29.5 0.00 0.00 0.00 71 1010.7
20260505220958 61 218 14.8 30.4 0.00 0.00 0.00 70 1010.7
20260505220458 61 220 16.5 30.4 0.00 0.00 0.00 69 1010.8
20260505215958 62 208 15.6 26.9 0.00 0.00 0.00 69 1010.7
20260505215457 62 208 13.0 30.4 0.00 0.00 0.00 69 1010.7
20260505214957 62 206 10.4 21.7 0.00 0.00 0.00 69 1010.9
20260505214458 62 212 11.3 25.2 0.00 0.00 0.00 69 1010.6
20260505213958 62 202 10.4 25.2 0.00 0.00 0.00 68 1010.9
20260505213458 62 213 14.8 32.2 0.00 0.00 0.00 68 1010.7
20260505212958 62 212 14.8 28.7 0.00 0.00 0.00 68 1010.8
20260505212457 62 212 15.6 26.1 0.00 0.00 0.00 68 1010.7
20260505211958 62 209 14.8 30.4 0.00 0.00 0.00 68 1010.7
20260505211458 62 210 12.2 26.9 0.00 0.00 0.00 68 1010.6
20260505210958 62 215 17.4 29.5 0.00 0.00 0.00 67 1010.4
20260505210457 62 204 10.4 30.4 0.00 0.00 0.00 68 1010.3
20260505205958 63 213 11.3 26.9 0.00 0.00 0.00 68 1010.7
20260505205458 63 210 13.0 29.5 0.00 0.00 0.00 67 1010.9
20260505204957 63 214 11.3 26.9 0.00 0.00 0.00 67 1010.4
20260505204458 63 211 12.2 25.2 0.00 0.00 0.00 68 1010.2
20260505203957 63 203 8.7 24.3 0.00 0.00 0.00 68 1010.3
20260505203458 63 214 13.0 25.2 0.00 0.00 0.00 67 1010.4
20260505202956 63 209 10.4 32.2 0.00 0.00 0.00 68 1010.4
20260505202457 63 213 13.9 26.9 0.00 0.00 0.00 67 1010.3
20260505201957 63 208 12.2 30.4 0.00 0.00 0.00 67 1010.4
20260505201457 63 199 9.6 27.8 0.00 0.00 0.00 66 1010.4
20260505200957 64 201 10.4 25.2 0.00 0.00 0.00 65 1010.5
20260505200457 64 203 9.6 29.5 0.00 0.00 0.00 66 1010.6
20260505195957 64 205 11.3 27.8 0.00 0.00 0.00 65 1010.5
20260505195457 64 206 8.7 23.5 0.00 0.00 0.00 66 1010.6
20260505194956 64 216 12.2 24.3 0.00 0.00 0.00 66 1010.7
20260505194457 64 212 15.6 28.7 0.00 0.00 0.00 65 1010.7
20260505193956 64 212 12.2 21.7 0.00 0.00 0.00 65 1010.7
20260505193457 64 214 13.0 28.7 0.00 0.00 0.00 65 1010.6
20260505192957 64 208 11.3 26.9 0.00 0.00 0.00 65 1010.6
20260505192457 64 213 8.7 28.7 0.00 0.00 0.00 66 1010.7
20260505191956 64 210 9.6 31.3 0.00 0.00 0.00 67 1010.9
20260505191455 65 210 10.4 24.3 0.00 0.00 0.00 65 1010.7
20260505190956 64 219 13.0 28.7 0.00 0.00 0.00 66 1010.8
20260505190456 65 212 13.0 26.9 0.00 0.00 0.00 64 1010.8
20260505185956 65 210 11.3 21.7 0.00 0.00 0.00 65 1010.8
20260505185456 65 216 15.6 27.8 0.00 0.00 0.00 64 1010.7
20260505184956 65 215 13.0 26.1 0.00 0.00 0.00 65 1010.8
20260505184456 65 215 12.2 25.2 0.00 0.00 0.00 65 1010.7
20260505183956 64 209 13.0 25.2 0.00 0.00 0.00 65 1010.9
20260505183456 65 208 13.0 26.9 0.00 0.00 0.00 64 1010.9
20260505182956 65 213 11.3 26.1 0.00 0.00 0.00 64 1011.1
20260505182456 66 212 8.7 22.6 0.00 0.00 0.00 64 1011.0
20260505181956 65 211 7.8 27.8 0.00 0.00 0.00 66 1011.1
20260505181456 65 210 12.2 25.2 0.00 0.00 0.00 65 1011.0
20260505180955 64 210 12.2 26.9 0.00 0.00 0.00 66 1011.1
20260505180456 66 200 7.8 20.0 0.00 0.00 0.00 64 1011.1
20260505175956 65 215 10.4 26.1 0.00 0.00 0.00 65 1011.2
20260505175456 66 202 11.3 23.5 0.00 0.00 0.00 63 1011.2
20260505174956 67 198 9.6 23.5 0.00 0.00 0.00 63 1011.1
20260505174455 67 205 11.3 22.6 0.00 0.00 0.00 63 1011.1
20260505173955 67 195 7.8 18.2 0.00 0.00 0.00 63 1011.3
20260505173456 67 206 8.7 23.5 0.00 0.00 0.00 62 1011.3
20260505172956 67 208 7.0 18.2 0.00 0.00 0.00 64 1011.6
20260505172456 67 213 10.4 20.9 0.00 0.00 0.00 63 1011.6
20260505171956 67 208 6.1 16.5 0.00 0.00 0.00 64 1011.6
20260505171456 67 202 8.7 20.0 0.00 0.00 0.00 64 1011.6
20260505170957 66 205 5.2 21.7 0.00 0.00 0.00 65 1011.6
20260505170456 65 192 9.6 20.0 0.00 0.00 0.00 65 1011.7
20260505165955 65 193 7.8 20.0 0.00 0.00 0.00 65 1011.6
20260505165455 66 202 10.4 22.6 0.00 0.00 0.00 64 1011.7
20260505164955 66 205 6.1 17.4 0.00 0.00 0.00 65 1011.6
20260505164455 66 212 8.7 20.9 0.00 0.00 0.00 64 1011.8
20260505163955 67 204 11.3 15.6 0.00 0.00 0.00 63 1011.8
20260505163456 66 196 7.0 17.4 0.00 0.00 0.00 65 1011.8
20260505162957 65 203 7.8 20.9 0.00 0.00 0.00 65 1012.1
20260505162457 65 203 7.8 26.9 0.00 0.00 0.00 66 1012.0
20260505161957 64 216 10.4 22.6 0.00 0.00 0.00 67 1012.0
20260505161456 65 208 10.4 21.7 0.00 0.00 0.00 66 1012.1
20260505160956 65 215 11.3 20.9 0.00 0.00 0.00 65 1012.0
20260505160455 65 203 7.8 20.0 0.00 0.00 0.00 66 1011.9
20260505152955 64 192 7.0 19.1 0.00 0.00 0.00 68 1012.2
20260505152457 64 192 13.0 24.3 0.00 0.00 0.00 66 1012.2
20260505151956 65 206 10.4 21.7 0.00 0.00 0.00 66 1012.1
20260505151456 64 207 8.7 20.9 0.00 0.00 0.00 68 1012.2
20260505150957 64 204 12.2 21.7 0.00 0.00 0.00 67 1012.0
20260505150455 64 203 11.3 18.2 0.00 0.00 0.00 67 1012.0
20260505140455 63 221 10.4 18.2 0.00 0.00 0.00 69 1011.8
20260505124955 60 211 11.3 24.3 0.00 0.00 0.00 73 1011.7